Location: Harwich
(41.6860°N, 70.0760°W)
Time: 14:50:48
(UTC-04:00)

N. Korean satellite - Visible Passes

Search period start: 14 October 2019 00:00
Search period end: 24 October 2019 00:00
Orbit: 455 x 508 km, 97.2° (Epoch: 14 October)

Date Brightness Start Highest point End Pass type
(mag) Time Alt. Az. Time Alt. Az. Time Alt. Az.
14 Oct 9.9 18:41:32 10° SW 18:43:51 17° W 18:46:12 10° NW visible
15 Oct 8.7 06:06:22 10° NNE 06:09:36 32° E 06:12:52 10° SSE visible
16 Oct 10.0 05:41:53 10° NE 05:44:11 16° E 05:46:29 10° SE visible
17 Oct 10.6 19:01:01 10° W 19:01:30 10° W 19:01:59 10° W visible
18 Oct 7.5 06:23:36 10° NNE 06:27:10 55° E 06:30:45 10° S visible
18 Oct 9.6 18:33:20 10° SSW 18:36:01 21° W 18:38:42 10° NW visible
19 Oct 9.2 05:58:42 10° NE 06:01:48 26° E 06:04:54 10° SSE visible
20 Oct 10.2 05:34:32 10° ENE 05:36:21 13° E 05:38:09 10° ESE visible
21 Oct 10.2 18:51:58 10° WSW 18:53:36 13° W 18:55:15 10° WNW visible
22 Oct 8.0 06:15:51 10° NNE 06:19:20 44° E 06:22:52 10° S visible
22 Oct 9.1 18:25:11 10° SSW 18:28:07 26° W 18:31:06 10° NW visible
23 Oct 9.5 05:51:04 10° NE 05:53:56 21° E 05:56:49 10° SSE visible
